Location: Ciserano
(45.5833°N, 9.6000°E)
Time: 08:14:25
(UTC+00:00)

Cosmos 1295 Rocket - Pass Details

Date: 22 April 2021
Orbit: 944 x 993 km, 82.9° (Epoch: 13 May)

Event Time Altitude Azimuth Distance (km) Brightness Sun altitude
Rises 23:22:22 0° 353° (N) 3,682 8.6 -31.9°
Reaches altitude 10° 23:24:54 10° 355° (N) 2,737 7.7 -31.9°
Enters shadow 23:30:44 69° 49° (NE) 1,054 4.6 -31.8°
